| time (UTC) | temp C | wind direction | speed KPH | gust KPH | rain 1hr cm | rain 24hr cm | rain mn cm | humidity % | barometer mb |
| 20260508054936 | 3 | 152 | 1.6 | 1.6 | 0.00 | 0.00 | 0.00 | 92 | 1011.9 |
| 20260508054433 | 3 | 163 | 0.0 | 0.0 | 0.00 | 0.00 | 0.00 | 92 | 1011.8 |
| 20260508053930 | 3 | 150 | 0.0 | 0.0 | 0.00 | 0.00 | 0.00 | 92 | 1011.9 |
| 20260508053427 | 3 | 143 | 1.6 | 1.6 | 0.00 | 0.00 | 0.00 | 92 | 1012.0 |
| 20260508052925 | 3 | 160 | 0.0 | 0.0 | 0.00 | 0.00 | 0.00 | 93 | 1012.2 |
| 20260508052422 | 2 | 159 | 0.0 | 0.0 | 0.00 | 0.00 | 0.00 | 93 | 1012.1 |
| 20260508051918 | 2 | 159 | 0.0 | 1.6 | 0.00 | 0.00 | 0.00 | 93 | 1012.3 |
| 20260508051414 | 2 | 159 | 0.0 | 0.0 | 0.00 | 0.00 | 0.00 | 93 | 1012.1 |
| 20260508050910 | 2 | 150 | 0.0 | 1.6 | 0.00 | 0.00 | 0.00 | 94 | 1012.1 |
| 20260508050407 | 2 | 150 | 0.0 | 1.6 | 0.00 | 0.00 | 0.00 | 94 | 1012.1 |
| 20260508045903 | 2 | 149 | 1.6 | 1.6 | 0.00 | 0.00 | 0.00 | 94 | 1012.1 |
| 20260508045401 | 2 | 148 | 0.0 | 1.6 | 0.00 | 0.00 | 0.00 | 94 | 1012.2 |
| 20260508044858 | 2 | 138 | 1.6 | 1.6 | 0.00 | 0.00 | 0.00 | 94 | 1012.1 |
| 20260508044355 | 2 | 149 | 0.0 | 1.6 | 0.00 | 0.00 | 0.00 | 94 | 1012.0 |
| 20260508043850 | 2 | 145 | 1.6 | 1.6 | 0.00 | 0.00 | 0.00 | 94 | 1012.2 |
| 20260508043348 | 2 | 142 | 1.6 | 1.6 | 0.00 | 0.00 | 0.00 | 93 | 1012.0 |
| 20260508042844 | 2 | 153 | 1.6 | 1.6 | 0.00 | 0.00 | 0.00 | 93 | 1012.0 |
| 20260508042342 | 2 | 156 | 0.0 | 1.6 | 0.00 | 0.00 | 0.00 | 93 | 1012.2 |
| 20260508041839 | 2 | 150 | 1.6 | 1.6 | 0.00 | 0.00 | 0.00 | 93 | 1012.2 |
| 20260508041335 | 2 | 150 | 1.6 | 1.6 | 0.00 | 0.00 | 0.00 | 92 | 1011.8 |
| 20260508040832 | 2 | 155 | 0.0 | 1.6 | 0.00 | 0.00 | 0.00 | 92 | 1011.8 |
| 20260508040330 | 2 | 154 | 0.0 | 1.6 | 0.00 | 0.00 | 0.00 | 92 | 1011.9 |
| 20260508035827 | 2 | 156 | 0.0 | 1.6 | 0.00 | 0.00 | 0.00 | 92 | 1011.8 |
| 20260508035324 | 2 | 164 | 0.0 | 0.0 | 0.00 | 0.00 | 0.00 | 91 | 1012.1 |
| 20260508034821 | 2 | 147 | 0.0 | 1.6 | 0.00 | 0.00 | 0.00 | 91 | 1011.6 |
| 20260508034318 | 3 | 145 | 1.6 | 1.6 | 0.00 | 0.00 | 0.00 | 90 | 1011.9 |
| 20260508033814 | 3 | 147 | 1.6 | 1.6 | 0.00 | 0.00 | 0.00 | 90 | 1011.9 |
| 20260508033313 | 3 | 148 | 1.6 | 1.6 | 0.00 | 0.00 | 0.00 | 90 | 1012.1 |
| 20260508032810 | 3 | 147 | 1.6 | 1.6 | 0.00 | 0.00 | 0.00 | 89 | 1011.8 |
| 20260508032307 | 3 | 148 | 0.0 | 0.0 | 0.00 | 0.00 | 0.00 | 89 | 1011.8 |
| 20260508031804 | 3 | 152 | 0.0 | 0.0 | 0.00 | 0.00 | 0.00 | 88 | 1011.8 |
| 20260508031301 | 3 | 148 | 1.6 | 1.6 | 0.00 | 0.00 | 0.00 | 88 | 1011.8 |
| 20260508030757 | 3 | 136 | 1.6 | 1.6 | 0.00 | 0.00 | 0.00 | 88 | 1011.9 |
| 20260508030254 | 3 | 150 | 1.6 | 1.6 | 0.00 | 0.00 | 0.00 | 87 | 1011.8 |
| 20260508025751 | 4 | 142 | 1.6 | 1.6 | 0.00 | 0.00 | 0.00 | 87 | 1011.8 |
| 20260508025248 | 4 | 139 | 1.6 | 1.6 | 0.00 | 0.00 | 0.00 | 86 | 1011.9 |
| 20260508024744 | 4 | 147 | 0.0 | 1.6 | 0.00 | 0.00 | 0.00 | 86 | 1012.0 |
| 20260508024241 | 4 | 148 | 0.0 | 1.6 | 0.00 | 0.00 | 0.00 | 85 | 1011.8 |
| 20260508023738 | 5 | 148 | 0.0 | 0.0 | 0.00 | 0.00 | 0.00 | 84 | 1012.0 |
| 20260508023235 | 5 | 141 | 1.6 | 1.6 | 0.00 | 0.00 | 0.00 | 84 | 1011.8 |
| 20260508022731 | 5 | 154 | 1.6 | 1.6 | 0.00 | 0.00 | 0.00 | 83 | 1011.7 |
| 20260508022228 | 5 | 157 | 0.0 | 1.6 | 0.00 | 0.00 | 0.00 | 82 | 1011.8 |
| 20260508021724 | 5 | 150 | 0.0 | 0.0 | 0.00 | 0.00 | 0.00 | 82 | 1011.7 |
| 20260508021220 | 5 | 144 | 1.6 | 1.6 | 0.00 | 0.00 | 0.00 | 81 | 1011.5 |
| 20260508020717 | 5 | 141 | 1.6 | 1.6 | 0.00 | 0.00 | 0.00 | 80 | 1011.6 |
| 20260508020214 | 5 | 146 | 0.0 | 0.0 | 0.00 | 0.00 | 0.00 | 80 | 1011.6 |
| 20260508015712 | 6 | 147 | 0.0 | 1.6 | 0.00 | 0.00 | 0.00 | 80 | 1011.5 |
| 20260508015209 | 6 | 157 | 0.0 | 0.0 | 0.00 | 0.00 | 0.00 | 79 | 1011.4 |
| 20260508014705 | 6 | 158 | 0.0 | 0.0 | 0.00 | 0.00 | 0.00 | 79 | 1011.3 |
| 20260508014202 | 6 | 144 | 0.0 | 1.6 | 0.00 | 0.00 | 0.00 | 78 | 1011.5 |
| 20260508013658 | 6 | 163 | 0.0 | 0.0 | 0.00 | 0.00 | 0.00 | 77 | 1011.3 |
| 20260508013154 | 6 | 150 | 0.0 | 0.0 | 0.00 | 0.00 | 0.00 | 77 | 1011.2 |
| 20260508012652 | 7 | 165 | 0.0 | 0.0 | 0.00 | 0.00 | 0.00 | 76 | 1011.0 |
| 20260508012149 | 7 | 140 | 1.6 | 1.6 | 0.00 | 0.00 | 0.00 | 75 | 1011.1 |
| 20260508011648 | 7 | 159 | 0.0 | 0.0 | 0.00 | 0.00 | 0.00 | 74 | 1011.2 |
| 20260508011144 | 7 | 146 | 1.6 | 1.6 | 0.00 | 0.00 | 0.00 | 73 | 1010.7 |
| 20260508010641 | 8 | 160 | 0.0 | 1.6 | 0.00 | 0.00 | 0.00 | 71 | 1010.9 |
| 20260508010139 | 8 | 137 | 1.6 | 1.6 | 0.00 | 0.00 | 0.00 | 70 | 1010.9 |
| 20260508005636 | 8 | 161 | 0.0 | 1.6 | 0.00 | 0.00 | 0.00 | 69 | 1010.8 |
| 20260508005132 | 9 | 165 | 0.0 | 1.6 | 0.00 | 0.00 | 0.00 | 66 | 1010.7 |
| 20260508004628 | 9 | 154 | 1.6 | 1.6 | 0.00 | 0.00 | 0.00 | 64 | 1010.5 |
| 20260508004125 | 10 | 158 | 1.6 | 1.6 | 0.00 | 0.00 | 0.00 | 60 | 1010.7 |
| 20260508003621 | 10 | 166 | 0.0 | 0.0 | 0.00 | 0.00 | 0.00 | 60 | 1010.5 |
| 20260508003119 | 10 | 168 | 0.0 | 0.0 | 0.00 | 0.00 | 0.00 | 59 | 1010.2 |
| 20260508002615 | 11 | 186 | 0.0 | 0.0 | 0.00 | 0.00 | 0.00 | 54 | 1010.4 |
| 20260508002113 | 11 | 186 | 0.0 | 1.6 | 0.00 | 0.00 | 0.00 | 58 | 1010.2 |
| 20260508001608 | 11 | 153 | 1.6 | 1.6 | 0.00 | 0.00 | 0.00 | 48 | 1010.2 |
| 20260508001104 | 12 | 163 | 0.0 | 0.0 | 0.00 | 0.00 | 0.00 | 51 | 1010.2 |
| 20260508000600 | 12 | 158 | 0.0 | 1.6 | 0.00 | 0.00 | 0.00 | 46 | 1010.1 |
| 20260508000058 | 12 | 159 | 0.0 | 0.0 | 0.00 | 0.00 | 0.00 | 46 | 1010.0 |
| 20260507235554 | 12 | 102 | 3.2 | 4.8 | 0.00 | 0.00 | 0.00 | 49 | 1009.9 |
| 20260507235052 | 12 | 162 | 4.8 | 4.8 | 0.00 | 0.00 | 0.00 | 46 | 1009.9 |
| 20260507234548 | 12 | 174 | 3.2 | 4.8 | 0.00 | 0.00 | 0.00 | 45 | 1009.6 |
| 20260507234045 | 12 | 162 | 4.8 | 4.8 | 0.00 | 0.00 | 0.00 | 45 | 1009.6 |
| 20260507233542 | 13 | 162 | 8.0 | 11.3 | 0.00 | 0.00 | 0.00 | 45 | 1010.0 |
| 20260507233041 | 13 | 171 | 0.0 | 1.6 | 0.00 | 0.00 | 0.00 | 49 | 1009.7 |
| 20260507232536 | 13 | 80 | 6.4 | 9.7 | 0.00 | 0.00 | 0.00 | 44 | 1009.4 |
| 20260507232034 | 13 | 152 | 3.2 | 3.2 | 0.00 | 0.00 | 0.00 | 45 | 1009.5 |
| 20260507231530 | 13 | 67 | 3.2 | 3.2 | 0.00 | 0.00 | 0.00 | 45 | 1009.7 |
| 20260507231027 | 13 | 143 | 3.2 | 3.2 | 0.00 | 0.00 | 0.00 | 45 | 1009.5 |
| 20260507230524 | 13 | 108 | 3.2 | 3.2 | 0.00 | 0.00 | 0.00 | 44 | 1009.4 |
| 20260507230021 | 13 | 50 | 8.0 | 9.7 | 0.00 | 0.00 | 0.00 | 44 | 1009.5 |
| 20260507225515 | 13 | 163 | 6.4 | 8.0 | 0.00 | 0.00 | 0.00 | 44 | 1009.4 |
| 20260507225012 | 14 | 97 | 6.4 | 8.0 | 0.00 | 0.00 | 0.00 | 43 | 1009.4 |
| 20260507224508 | 15 | 161 | 4.8 | 4.8 | 0.00 | 0.00 | 0.00 | 43 | 1009.1 |
| 20260507224005 | 15 | 27 | 4.8 | 8.0 | 0.00 | 0.00 | 0.00 | 41 | 1009.0 |
| 20260507223500 | 15 | 153 | 1.6 | 1.6 | 0.00 | 0.00 | 0.00 | 40 | 1008.9 |
| 20260507222958 | 15 | 182 | 1.6 | 4.8 | 0.00 | 0.00 | 0.00 | 40 | 1009.0 |
| 20260507222455 | 15 | 175 | 0.0 | 1.6 | 0.00 | 0.00 | 0.00 | 42 | 1008.7 |
| 20260507221951 | 15 | 46 | 1.6 | 3.2 | 0.00 | 0.00 | 0.00 | 41 | 1009.1 |
| 20260507221448 | 15 | 121 | 1.6 | 1.6 | 0.00 | 0.00 | 0.00 | 41 | 1008.9 |
| 20260507220944 | 15 | 185 | 8.0 | 9.7 | 0.00 | 0.00 | 0.00 | 42 | 1008.9 |
| 20260507220442 | 15 | 164 | 6.4 | 8.0 | 0.00 | 0.00 | 0.00 | 41 | 1008.7 |
| 20260507215938 | 15 | 190 | 4.8 | 8.0 | 0.00 | 0.00 | 0.00 | 40 | 1008.5 |
| 20260507215435 | 15 | 142 | 3.2 | 3.2 | 0.00 | 0.00 | 0.00 | 39 | 1008.4 |
| 20260507214932 | 15 | 160 | 1.6 | 1.6 | 0.00 | 0.00 | 0.00 | 41 | 1008.5 |
| 20260507214430 | 15 | 161 | 0.0 | 1.6 | 0.00 | 0.00 | 0.00 | 40 | 1008.6 |
| 20260507213925 | 15 | 163 | 3.2 | 4.8 | 0.00 | 0.00 | 0.00 | 41 | 1008.5 |
| 20260507213422 | 15 | 172 | 1.6 | 1.6 | 0.00 | 0.00 | 0.00 | 40 | 1008.3 |
| 20260507212919 | 16 | 91 | 3.2 | 3.2 | 0.00 | 0.00 | 0.00 | 38 | 1008.3 |
| 20260507212415 | 16 | 176 | 3.2 | 3.2 | 0.00 | 0.00 | 0.00 | 39 | 1008.4 |
| 20260507211912 | 16 | 116 | 4.8 | 4.8 | 0.00 | 0.00 | 0.00 | 38 | 1008.3 |
| 20260507211408 | 15 | 175 | 1.6 | 1.6 | 0.00 | 0.00 | 0.00 | 40 | 1008.3 |
| 20260507210905 | 16 | 46 | 4.8 | 8.0 | 0.00 | 0.00 | 0.00 | 41 | 1008.2 |
| 20260507210402 | 15 | 61 | 4.8 | 8.0 | 0.00 | 0.00 | 0.00 | 40 | 1008.3 |
| 20260507205859 | 16 | 192 | 9.7 | 14.5 | 0.00 | 0.00 | 0.00 | 37 | 1008.2 |
| 20260507205356 | 16 | 73 | 3.2 | 8.0 | 0.00 | 0.00 | 0.00 | 40 | 1008.1 |
| 20260507204852 | 15 | 177 | 3.2 | 4.8 | 0.00 | 0.00 | 0.00 | 39 | 1008.2 |
| 20260507204349 | 16 | 323 | 6.4 | 8.0 | 0.00 | 0.00 | 0.00 | 38 | 1008.0 |
| 20260507203847 | 15 | 15 | 4.8 | 4.8 | 0.00 | 0.00 | 0.00 | 39 | 1008.1 |
| 20260507203344 | 16 | 136 | 1.6 | 1.6 | 0.00 | 0.00 | 0.00 | 40 | 1008.4 |
| 20260507202840 | 16 | 239 | 4.8 | 4.8 | 0.00 | 0.00 | 0.00 | 37 | 1008.2 |
| 20260507202337 | 16 | 127 | 1.6 | 3.2 | 0.00 | 0.00 | 0.00 | 39 | 1008.3 |
| 20260507201833 | 16 | 192 | 1.6 | 1.6 | 0.00 | 0.00 | 0.00 | 36 | 1008.0 |
| 20260507201328 | 16 | 191 | 4.8 | 8.0 | 0.00 | 0.00 | 0.00 | 38 | 1008.1 |
| 20260507200825 | 16 | 342 | 3.2 | 3.2 | 0.00 | 0.00 | 0.00 | 38 | 1008.3 |
| 20260507200321 | 16 | 193 | 6.4 | 8.0 | 0.00 | 0.00 | 0.00 | 37 | 1008.2 |
| 20260507195817 | 16 | 213 | 6.4 | 11.3 | 0.00 | 0.00 | 0.00 | 36 | 1008.4 |
| 20260507195315 | 15 | 172 | 8.0 | 9.7 | 0.00 | 0.00 | 0.00 | 36 | 1008.4 |
| 20260507194812 | 16 | 180 | 11.3 | 12.9 | 0.00 | 0.00 | 0.00 | 38 | 1008.5 |
| 20260507194308 | 16 | 179 | 1.6 | 1.6 | 0.00 | 0.00 | 0.00 | 34 | 1008.5 |
| 20260507193804 | 17 | 188 | 8.0 | 9.7 | 0.00 | 0.00 | 0.00 | 35 | 1008.5 |
| 20260507193302 | 17 | 163 | 4.8 | 4.8 | 0.00 | 0.00 | 0.00 | 36 | 1008.7 |
| 20260507192757 | 17 | 166 | 19.3 | 27.4 | 0.00 | 0.00 | 0.00 | 34 | 1008.7 |
| 20260507192254 | 17 | 90 | 4.8 | 4.8 | 0.00 | 0.00 | 0.00 | 36 | 1008.6 |
| 20260507191750 | 16 | 182 | 9.7 | 12.9 | 0.00 | 0.00 | 0.00 | 36 | 1008.4 |
| 20260507191247 | 16 | 288 | 8.0 | 11.3 | 0.00 | 0.00 | 0.00 | 35 | 1008.3 |
| 20260507190744 | 17 | 179 | 4.8 | 8.0 | 0.00 | 0.00 | 0.00 | 33 | 1008.6 |
| 20260507190243 | 16 | 183 | 1.6 | 3.2 | 0.00 | 0.00 | 0.00 | 38 | 1008.7 |
| 20260507185741 | 16 | 18 | 4.8 | 8.0 | 0.00 | 0.00 | 0.00 | 36 | 1008.5 |
| 20260507185237 | 15 | 163 | 8.0 | 11.3 | 0.00 | 0.00 | 0.00 | 40 | 1008.7 |
| 20260507184735 | 15 | 42 | 8.0 | 9.7 | 0.00 | 0.00 | 0.00 | 38 | 1008.4 |
| 20260507184233 | 15 | 175 | 0.0 | 0.0 | 0.00 | 0.00 | 0.00 | 40 | 1008.6 |
| 20260507183729 | 16 | 345 | 9.7 | 11.3 | 0.00 | 0.00 | 0.00 | 36 | 1008.9 |
| 20260507183226 | 16 | 185 | 4.8 | 4.8 | 0.00 | 0.00 | 0.00 | 37 | 1008.5 |
| 20260507182723 | 16 | 105 | 3.2 | 4.8 | 0.00 | 0.00 | 0.00 | 36 | 1008.7 |
| 20260507182218 | 16 | 181 | 6.4 | 8.0 | 0.00 | 0.00 | 0.00 | 37 | 1008.9 |
| 20260507181715 | 15 | 160 | 6.4 | 8.0 | 0.00 | 0.00 | 0.00 | 41 | 1008.7 |
| 20260507181212 | 16 | 269 | 4.8 | 4.8 | 0.00 | 0.00 | 0.00 | 37 | 1008.9 |
| 20260507180709 | 16 | 200 | 4.8 | 8.0 | 0.00 | 0.00 | 0.00 | 38 | 1008.8 |
| 20260507180206 | 16 | 190 | 4.8 | 9.7 | 0.00 | 0.00 | 0.00 | 38 | 1009.1 |
| 20260507175701 | 15 | 163 | 8.0 | 9.7 | 0.00 | 0.00 | 0.00 | 38 | 1008.9 |
| 20260507175158 | 15 | 157 | 1.6 | 1.6 | 0.00 | 0.00 | 0.00 | 40 | 1009.1 |
| 20260507174655 | 15 | 180 | 1.6 | 1.6 | 0.00 | 0.00 | 0.00 | 41 | 1009.1 |
| 20260507174154 | 15 | 161 | 4.8 | 9.7 | 0.00 | 0.00 | 0.00 | 42 | 1009.0 |
| 20260507173650 | 15 | 178 | 6.4 | 11.3 | 0.00 | 0.00 | 0.00 | 43 | 1009.3 |
| 20260507173147 | 15 | 137 | 8.0 | 12.9 | 0.00 | 0.00 | 0.00 | 41 | 1009.3 |
| 20260507172644 | 15 | 188 | 4.8 | 8.0 | 0.00 | 0.00 | 0.00 | 45 | 1009.2 |
| 20260507172141 | 16 | 168 | 1.6 | 3.2 | 0.00 | 0.00 | 0.00 | 42 | 1009.0 |
| 20260507171641 | 15 | 338 | 3.2 | 3.2 | 0.00 | 0.00 | 0.00 | 42 | 1009.2 |
| 20260507171139 | 15 | 191 | 11.3 | 12.9 | 0.00 | 0.00 | 0.00 | 41 | 1009.3 |
| 20260507170636 | 15 | 28 | 9.7 | 12.9 | 0.00 | 0.00 | 0.00 | 42 | 1009.4 |
| 20260507170133 | 16 | 174 | 3.2 | 3.2 | 0.00 | 0.00 | 0.00 | 42 | 1009.6 |
| 20260507165628 | 15 | 20 | 4.8 | 4.8 | 0.00 | 0.00 | 0.00 | 43 | 1009.4 |
| 20260507165125 | 13 | 44 | 1.6 | 3.2 | 0.00 | 0.00 | 0.00 | 44 | 1009.5 |
| 20260507164620 | 15 | 235 | 4.8 | 4.8 | 0.00 | 0.00 | 0.00 | 46 | 1009.6 |
| 20260507164118 | 13 | 122 | 1.6 | 3.2 | 0.00 | 0.00 | 0.00 | 46 | 1009.9 |
| 20260507163615 | 13 | 169 | 3.2 | 3.2 | 0.00 | 0.00 | 0.00 | 45 | 1009.9 |
| 20260507163113 | 14 | 114 | 4.8 | 8.0 | 0.00 | 0.00 | 0.00 | 45 | 1009.6 |
| 20260507162608 | 13 | 71 | 3.2 | 4.8 | 0.00 | 0.00 | 0.00 | 47 | 1009.9 |
| 20260507162105 | 13 | 176 | 3.2 | 4.8 | 0.00 | 0.00 | 0.00 | 50 | 1009.9 |
| 20260507161601 | 14 | 152 | 4.8 | 8.0 | 0.00 | 0.00 | 0.00 | 47 | 1009.7 |
| 20260507161058 | 14 | 10 | 4.8 | 8.0 | 0.00 | 0.00 | 0.00 | 47 | 1009.9 |
| 20260507160554 | 14 | 165 | 4.8 | 4.8 | 0.00 | 0.00 | 0.00 | 44 | 1010.0 |
| 20260507160050 | 13 | 118 | 3.2 | 3.2 | 0.00 | 0.00 | 0.00 | 43 | 1010.0 |
| 20260507155546 | 13 | 89 | 4.8 | 8.0 | 0.00 | 0.00 | 0.00 | 49 | 1010.0 |
| 20260507155043 | 13 | 105 | 4.8 | 4.8 | 0.00 | 0.00 | 0.00 | 46 | 1010.1 |
| 20260507154540 | 13 | 172 | 0.0 | 1.6 | 0.00 | 0.00 | 0.00 | 48 | 1010.2 |
| 20260507154037 | 13 | 148 | 4.8 | 4.8 | 0.00 | 0.00 | 0.00 | 48 | 1010.2 |
| 20260507153534 | 13 | 150 | 1.6 | 3.2 | 0.00 | 0.00 | 0.00 | 47 | 1010.3 |
| 20260507153030 | 13 | 176 | 1.6 | 3.2 | 0.00 | 0.00 | 0.00 | 51 | 1010.0 |
| 20260507152526 | 13 | 27 | 4.8 | 8.0 | 0.00 | 0.00 | 0.00 | 48 | 1010.2 |
| 20260507152022 | 13 | 120 | 3.2 | 3.2 | 0.00 | 0.00 | 0.00 | 48 | 1010.1 |
| 20260507151519 | 14 | 193 | 4.8 | 8.0 | 0.00 | 0.00 | 0.00 | 51 | 1010.1 |
| 20260507151016 | 14 | 211 | 4.8 | 8.0 | 0.00 | 0.00 | 0.00 | 48 | 1010.3 |
| 20260507150513 | 13 | 188 | 4.8 | 4.8 | 0.00 | 0.00 | 0.00 | 48 | 1010.2 |
| 20260507150009 | 13 | 182 | 1.6 | 1.6 | 0.00 | 0.00 | 0.00 | 51 | 1010.6 |
| 20260507145504 | 12 | 159 | 1.6 | 1.6 | 0.00 | 0.00 | 0.00 | 51 | 1010.7 |
| 20260507145002 | 13 | 86 | 8.0 | 9.7 | 0.00 | 0.00 | 0.00 | 51 | 1010.6 |
| 20260507144459 | 12 | 182 | 4.8 | 4.8 | 0.00 | 0.00 | 0.00 | 53 | 1010.5 |
| 20260507143955 | 12 | 179 | 8.0 | 11.3 | 0.00 | 0.00 | 0.00 | 55 | 1010.8 |
| 20260507143453 | 12 | 176 | 8.0 | 9.7 | 0.00 | 0.00 | 0.00 | 65 | 1010.7 |
| 20260507142950 | 12 | 210 | 4.8 | 8.0 | 0.00 | 0.00 | 0.00 | 63 | 1010.8 |
| 20260507142445 | 11 | 182 | 3.2 | 3.2 | 0.00 | 0.00 | 0.00 | 65 | 1010.8 |
| 20260507141943 | 12 | 172 | 3.2 | 4.8 | 0.00 | 0.00 | 0.00 | 64 | 1011.0 |
| 20260507141438 | 11 | 177 | 0.0 | 1.6 | 0.00 | 0.00 | 0.00 | 67 | 1011.1 |
| 20260507140936 | 11 | 207 | 4.8 | 4.8 | 0.00 | 0.00 | 0.00 | 65 | 1011.1 |
| 20260507140432 | 11 | 188 | 3.2 | 3.2 | 0.00 | 0.00 | 0.00 | 67 | 1011.0 |
| 20260507135930 | 11 | 162 | 0.0 | 0.0 | 0.00 | 0.00 | 0.00 | 69 | 1011.4 |
| 20260507135426 | 11 | 183 | 0.0 | 0.0 | 0.00 | 0.00 | 0.00 | 67 | 1011.4 |
| 20260507134924 | 10 | 184 | 0.0 | 0.0 | 0.00 | 0.00 | 0.00 | 70 | 1011.4 |
| 20260507134420 | 10 | 170 | 0.0 | 0.0 | 0.00 | 0.00 | 0.00 | 72 | 1011.5 |
| 20260507133916 | 10 | 185 | 0.0 | 0.0 | 0.00 | 0.00 | 0.00 | 72 | 1011.4 |
| 20260507133412 | 10 | 180 | 0.0 | 0.0 | 0.00 | 0.00 | 0.00 | 74 | 1011.5 |
| 20260507132911 | 9 | 171 | 0.0 | 0.0 | 0.00 | 0.00 | 0.00 | 77 | 1011.4 |
| 20260507132407 | 8 | 168 | 0.0 | 0.0 | 0.00 | 0.00 | 0.00 | 81 | 1011.6 |
| 20260507131905 | 8 | 175 | 0.0 | 0.0 | 0.00 | 0.00 | 0.00 | 84 | 1011.5 |
| 20260507131401 | 7 | 172 | 0.0 | 0.0 | 0.00 | 0.00 | 0.00 | 87 | 1011.7 |
| 20260507130858 | 7 | 174 | 0.0 | 0.0 | 0.00 | 0.00 | 0.00 | 89 | 1011.6 |
| 20260507130354 | 6 | 161 | 0.0 | 0.0 | 0.00 | 0.00 | 0.00 | 91 | 1011.6 |
| 20260507125854 | 6 | 165 | 0.0 | 0.0 | 0.00 | 0.00 | 0.00 | 94 | 1011.9 |
| 20260507125350 | 5 | 168 | 0.0 | 0.0 | 0.00 | 0.00 | 0.00 | 96 | 1011.8 |
| 20260507124848 | 5 | 166 | 0.0 | 0.0 | 0.00 | 0.00 | 0.00 | 98 | 1011.9 |
| 20260507124343 | 5 | 168 | 0.0 | 0.0 | 0.00 | 0.00 | 0.00 | 99 | 1011.8 |
| 20260507123843 | 5 | 168 | 0.0 | 0.0 | 0.00 | 0.00 | 0.00 | 99 | 1011.7 |
| 20260507123339 | 4 | 158 | 0.0 | 0.0 | 0.00 | 0.00 | 0.00 | 99 | 1011.8 |
| 20260507122836 | 4 | 158 | 0.0 | 0.0 | 0.00 | 0.00 | 0.00 | 99 | 1011.9 |
| 20260507122331 | 3 | 156 | 0.0 | 0.0 | 0.00 | 0.00 | 0.00 | 99 | 1011.7 |
| 20260507121828 | 3 | 156 | 0.0 | 0.0 | 0.00 | 0.00 | 0.00 | 99 | 1011.8 |
| 20260507121323 | 3 | 156 | 0.0 | 0.0 | 0.00 | 0.00 | 0.00 | 99 | 1011.6 |
| 20260507120820 | 2 | 155 | 0.0 | 0.0 | 0.00 | 0.00 | 0.00 | 99 | 1011.8 |
| 20260507120316 | 2 | 155 | 0.0 | 0.0 | 0.00 | 0.00 | 0.00 | 99 | 1011.7 |
| 20260507115813 | 2 | 155 | 0.0 | 0.0 | 0.00 | 0.00 | 0.00 | 99 | 1011.6 |
| 20260507115308 | 2 | 155 | 0.0 | 0.0 | 0.00 | 0.00 | 0.00 | 99 | 1011.8 |
| 20260507114804 | 1 | 155 | 0.0 | 0.0 | 0.00 | 0.00 | 0.00 | 99 | 1011.7 |
| 20260507114302 | 1 | 155 | 0.0 | 0.0 | 0.00 | 0.00 | 0.00 | 99 | 1011.8 |
| 20260507113759 | 1 | 155 | 0.0 | 0.0 | 0.00 | 0.00 | 0.00 | 99 | 1011.7 |
| 20260507113256 | 1 | 155 | 0.0 | 0.0 | 0.00 | 0.00 | 0.00 | 99 | 1011.8 |
| 20260507112754 | 1 | 155 | 0.0 | 0.0 | 0.00 | 0.00 | 0.00 | 99 | 1011.8 |
| 20260507112250 | 1 | 155 | 0.0 | 0.0 | 0.00 | 0.00 | 0.00 | 99 | 1011.7 |
| 20260507111748 | 0 | 155 | 0.0 | 0.0 | 0.00 | 0.00 | 0.00 | 99 | 1011.7 |
| 20260507111244 | 0 | 155 | 0.0 | 0.0 | 0.00 | 0.00 | 0.00 | 99 | 1011.5 |
| 20260507110741 | 0 | 155 | 0.0 | 0.0 | 0.00 | 0.00 | 0.00 | 99 | 1011.6 |
| 20260507110237 | 0 | 155 | 0.0 | 0.0 | 0.00 | 0.00 | 0.00 | 99 | 1011.4 |
| 20260507105734 | 0 | 155 | 0.0 | 0.0 | 0.00 | 0.00 | 0.00 | 99 | 1011.6 |
| 20260507105230 | 0 | 155 | 0.0 | 0.0 | 0.00 | 0.00 | 0.00 | 99 | 1011.4 |
| 20260507104727 | 0 | 155 | 0.0 | 0.0 | 0.00 | 0.00 | 0.00 | 99 | 1011.4 |
| 20260507104224 | 0 | 155 | 0.0 | 0.0 | 0.00 | 0.00 | 0.00 | 99 | 1011.5 |
| 20260507103720 | 0 | 155 | 0.0 | 0.0 | 0.00 | 0.00 | 0.00 | 99 | 1011.6 |
| 20260507103217 | 0 | 155 | 0.0 | 0.0 | 0.00 | 0.00 | 0.00 | 99 | 1011.4 |
| 20260507102713 | 0 | 155 | 0.0 | 0.0 | 0.00 | 0.00 | 0.00 | 99 | 1011.5 |
| 20260507102210 | 0 | 155 | 0.0 | 0.0 | 0.00 | 0.00 | 0.00 | 99 | 1011.5 |
| 20260507101706 | 0 | 155 | 0.0 | 0.0 | 0.00 | 0.00 | 0.00 | 99 | 1011.5 |
| 20260507101201 | 0 | 155 | 0.0 | 0.0 | 0.00 | 0.00 | 0.00 | 99 | 1011.5 |
| 20260507100659 | 0 | 155 | 0.0 | 0.0 | 0.00 | 0.00 | 0.00 | 99 | 1011.4 |
| 20260507100157 | 0 | 155 | 0.0 | 0.0 | 0.00 | 0.00 | 0.00 | 99 | 1011.4 |
| 20260507095655 | 1 | 155 | 0.0 | 0.0 | 0.00 | 0.00 | 0.00 | 99 | 1011.3 |
| 20260507095151 | 1 | 155 | 0.0 | 0.0 | 0.00 | 0.00 | 0.00 | 99 | 1011.4 |
| 20260507094648 | 1 | 155 | 0.0 | 0.0 | 0.00 | 0.00 | 0.00 | 98 | 1011.2 |
| 20260507094144 | 1 | 154 | 0.0 | 0.0 | 0.00 | 0.00 | 0.00 | 98 | 1011.2 |
| 20260507093642 | 1 | 154 | 0.0 | 0.0 | 0.00 | 0.00 | 0.00 | 98 | 1011.3 |
| 20260507093141 | 1 | 155 | 0.0 | 0.0 | 0.00 | 0.00 | 0.00 | 98 | 1011.3 |
| 20260507092637 | 1 | 155 | 0.0 | 0.0 | 0.00 | 0.00 | 0.00 | 98 | 1011.3 |
| 20260507092133 | 1 | 155 | 0.0 | 0.0 | 0.00 | 0.00 | 0.00 | 98 | 1011.7 |
| 20260507091630 | 1 | 154 | 0.0 | 0.0 | 0.00 | 0.00 | 0.00 | 98 | 1011.5 |
| 20260507091126 | 1 | 154 | 0.0 | 0.0 | 0.00 | 0.00 | 0.00 | 98 | 1011.3 |
| 20260507090622 | 1 | 154 | 0.0 | 0.0 | 0.00 | 0.00 | 0.00 | 98 | 1011.5 |
| 20260507090119 | 1 | 154 | 0.0 | 0.0 | 0.00 | 0.00 | 0.00 | 98 | 1011.2 |
| 20260507085616 | 1 | 154 | 0.0 | 0.0 | 0.00 | 0.00 | 0.00 | 98 | 1011.3 |
| 20260507085112 | 1 | 154 | 0.0 | 0.0 | 0.00 | 0.00 | 0.00 | 98 | 1011.4 |
| 20260507084610 | 1 | 154 | 0.0 | 0.0 | 0.00 | 0.00 | 0.00 | 98 | 1011.5 |
| 20260507084106 | 1 | 154 | 0.0 | 0.0 | 0.00 | 0.00 | 0.00 | 98 | 1011.2 |
| 20260507083603 | 1 | 154 | 0.0 | 0.0 | 0.00 | 0.00 | 0.00 | 98 | 1011.4 |
| 20260507083100 | 2 | 154 | 0.0 | 0.0 | 0.00 | 0.00 | 0.00 | 98 | 1011.7 |
| 20260507082555 | 2 | 154 | 0.0 | 0.0 | 0.00 | 0.00 | 0.00 | 98 | 1011.4 |
| 20260507082052 | 2 | 155 | 0.0 | 0.0 | 0.00 | 0.00 | 0.00 | 98 | 1011.3 |
| 20260507081548 | 2 | 154 | 0.0 | 0.0 | 0.00 | 0.00 | 0.00 | 98 | 1011.4 |
| 20260507081046 | 2 | 155 | 0.0 | 0.0 | 0.00 | 0.00 | 0.00 | 98 | 1011.4 |
| 20260507080541 | 2 | 155 | 0.0 | 0.0 | 0.00 | 0.00 | 0.00 | 98 | 1011.4 |
| 20260507080038 | 2 | 154 | 0.0 | 0.0 | 0.00 | 0.00 | 0.00 | 97 | 1011.4 |
| 20260507075533 | 2 | 153 | 0.0 | 0.0 | 0.00 | 0.00 | 0.00 | 97 | 1011.5 |
| 20260507075030 | 2 | 154 | 0.0 | 0.0 | 0.00 | 0.00 | 0.00 | 97 | 1011.4 |
| 20260507074526 | 2 | 154 | 0.0 | 0.0 | 0.00 | 0.00 | 0.00 | 97 | 1011.4 |
| 20260507074025 | 2 | 154 | 0.0 | 0.0 | 0.00 | 0.00 | 0.00 | 97 | 1011.3 |
| 20260507073521 | 2 | 154 | 0.0 | 0.0 | 0.00 | 0.00 | 0.00 | 97 | 1011.4 |
| 20260507073018 | 2 | 145 | 0.0 | 0.0 | 0.00 | 0.00 | 0.00 | 97 | 1011.4 |
| 20260507072515 | 3 | 149 | 0.0 | 0.0 | 0.00 | 0.00 | 0.00 | 97 | 1011.5 |
| 20260507072012 | 3 | 154 | 0.0 | 0.0 | 0.00 | 0.00 | 0.00 | 96 | 1011.3 |
| 20260507071509 | 3 | 154 | 0.0 | 0.0 | 0.00 | 0.00 | 0.00 | 96 | 1011.5 |
| 20260507071006 | 3 | 153 | 0.0 | 0.0 | 0.00 | 0.00 | 0.00 | 96 | 1011.5 |
| 20260507070503 | 3 | 154 | 0.0 | 0.0 | 0.00 | 0.00 | 0.00 | 96 | 1011.6 |
| 20260507070000 | 3 | 152 | 0.0 | 0.0 | 0.00 | 0.00 | 0.00 | 96 | 1011.5 |
| 20260507065456 | 3 | 154 | 0.0 | 0.0 | 0.00 | 0.00 | 0.00 | 95 | 1011.8 |
| 20260507064954 | 3 | 154 | 0.0 | 0.0 | 0.00 | 0.00 | 0.00 | 95 | 1011.6 |
| 20260507064452 | 3 | 154 | 0.0 | 0.0 | 0.00 | 0.00 | 0.00 | 95 | 1011.6 |
| 20260507063949 | 4 | 152 | 0.0 | 0.0 | 0.00 | 0.00 | 0.00 | 94 | 1011.8 |
| 20260507063446 | 4 | 154 | 0.0 | 0.0 | 0.00 | 0.00 | 0.00 | 94 | 1011.6 |
| 20260507062943 | 4 | 154 | 0.0 | 0.0 | 0.00 | 0.00 | 0.00 | 94 | 1011.6 |
| 20260507062441 | 4 | 155 | 0.0 | 0.0 | 0.00 | 0.00 | 0.00 | 94 | 1011.8 |
| 20260507061938 | 5 | 155 | 0.0 | 0.0 | 0.00 | 0.00 | 0.00 | 93 | 1011.6 |
| 20260507061436 | 5 | 155 | 0.0 | 0.0 | 0.00 | 0.00 | 0.00 | 93 | 1011.7 |
| 20260507060934 | 5 | 155 | 0.0 | 0.0 | 0.00 | 0.00 | 0.00 | 93 | 1011.6 |
| 20260507060430 | 5 | 146 | 0.0 | 0.0 | 0.00 | 0.00 | 0.00 | 92 | 1011.9 |
| 20260507055927 | 5 | 142 | 0.0 | 0.0 | 0.00 | 0.00 | 0.00 | 92 | 1011.9 |
| 20260507055423 | 5 | 156 | 0.0 | 0.0 | 0.00 | 0.00 | 0.00 | 92 | 1011.7 |